This is the latest recevied weather packets stored in our database for station/object K0WOI. If no packets are shown the sender has not sent any weather packets the latest 10 day(s).
| Time | Temp. | Humidity | Pressure | Rain* | Wind** | Luminosity | Snow |
|---|---|---|---|---|---|---|---|
| 1777533974 | 9.44° C | 77% | 1016.8 hPa | 0 mm | - | 0 W/m² | - |
| 1777533670 | 10° C | 76% | 1017.2 hPa | 0 mm | - | 0 W/m² | - |
| 1777533366 | 9.44° C | 68% | 1017.3 hPa | 0 mm | - | 0 W/m² | - |
| 1777533063 | 9.44° C | 65% | 1017.3 hPa | 0 mm | - | 0 W/m² | - |
| 1777532761 | 8.89° C | 65% | 1017.1 hPa | 0 mm | - | 0 W/m² | - |
| 1777532456 | 8.33° C | 68% | 1017 hPa | 0 mm | - | 0 W/m² | - |
| 1777532154 | 8.33° C | 72% | 1017.2 hPa | 0 mm | - | 0 W/m² | - |
| 1777531849 | 8.33° C | 72% | 1017 hPa | 0 mm | - | 0 W/m² | - |
| 1777531545 | 7.78° C | 74% | 1017.1 hPa | 0 mm | - | 0 W/m² | - |
| 1777531243 | 7.78° C | 73% | 1017.1 hPa | 0 mm | - | 0 W/m² | - |
| 1777530940 | 7.78° C | 73% | 1017 hPa | 0 mm | - | 0 W/m² | - |
| 1777530632 | 7.78° C | 73% | 1017.2 hPa | 0 mm | - | 0 W/m² | - |
| 1777530329 | 7.78° C | 72% | 1017.1 hPa | 0 mm | - | 0 W/m² | - |
| 1777530025 | 7.78° C | 72% | 1017.3 hPa | 0 mm | - | 0 W/m² | - |
| 1777529723 | 8.33° C | 71% | 1017.2 hPa | 0 mm | - | 0 W/m² | - |
| 1777529419 | 8.33° C | 70% | 1017.1 hPa | 0 mm | - | 0 W/m² | - |
| 1777529116 | 8.33° C | 69% | 1017.2 hPa | 0 mm | - | 0 W/m² | - |
| 1777528812 | 8.33° C | 68% | 1017.1 hPa | 0 mm | - | 0 W/m² | - |
| 1777528509 | 8.33° C | 67% | 1017.2 hPa | 0 mm | - | 0 W/m² | - |
| 1777528207 | 8.33° C | 67% | 1017.2 hPa | 0 mm | - | 0 W/m² | - |
| 1777527904 | 8.33° C | 67% | 1017.1 hPa | 0 mm | - | 0 W/m² | - |
| 1777527600 | 8.33° C | 68% | 1017.4 hPa | 0 mm | - | 0 W/m² | - |
| 1777527294 | 8.33° C | 68% | 1017.1 hPa | 0 mm | - | 0 W/m² | - |
| 1777526990 | 8.33° C | 69% | 1017.1 hPa | 0 mm | - | 0 W/m² | - |
| 1777526686 | 8.33° C | 69% | 1017.3 hPa | 0 mm | - | 0 W/m² | - |
* Rain latest hour (hover to see other rain measurements)
** Current wind speed in m/s (hover to see current wind gust speed)